Weather History for Hill City, KS

Change the Weather History Date:

Monday, April 22, 2013

  Actual Average Record
Temperature  
Mean Temperature 43 °F 54 °F  
Max Temperature 55 °F 68 °F 101 °F (1989)
Min Temperature 30 °F 40 °F 25 °F (1982)
Degree Days  
Heating Degree Days 22    
Moisture  
Dew Point 41 °F    
Average Humidity 89    
Maximum Humidity 100    
Minimum Humidity 69    
Precipitation  
Precipitation 0.08 in 0.08 in 0.47 in (2007)
Month to date precipitation 0.23 1.43  
Year to date precipitation 2.21 4.03  
Sea Level Pressure  
Sea Level Pressure 30.03 in    
Wind  
Wind Speed 11 mph (NNE)    
Max Wind Speed 31 mph    
Max Gust Speed 45 mph    
Visibility 7 miles    
Events Fog , Rain , Snow , Thunderstorm    
T = Trace of Precipitation, MM = Missing Value Source: NWS Daily Summary

Daily Weather History Graph

Daily Weather History Graph

Search for Another Location

Airport:

Trip Planner

Search our weather history database for the weather conditions in past years. The results will help you decide how hot, cold, wet, or windy it might be!

Date:

Astronomy

Apr. 22, 2013 Rise Set
Actual Time 6:51 AM CDT 8:24 PM CDT
Civil Twilight 6:23 AM CDT 8:52 PM CDT
Nautical Twilight 5:49 AM CDT 9:26 PM CDT
Astronomical Twilight 5:13 AM CDT 10:02 PM CDT
Moon 5:15 PM CDT (4/22) 4:46 AM CDT (4/22)
Length of Visible Light 14h 28m
Length of Day
13h 32m
Waxing Gibbous, 88% of the Moon is Illuminated
Apr 22
Waxing Gibbous
Apr 25
Full
May 2
Last Quarter
May 9
New
May 17
First Quarter

Hourly Weather History & Observations

Time (CDT) Temp. Windchill Dew Point Humidity Pressure Visibility Wind Dir Wind Speed Gust Speed Precip Events Conditions
12:53 AM 55.0 °F - 45.0 °F 69% 29.98 in 10.0 mi South 9.2 mph - N/A   Mostly Cloudy
1:53 AM 54.0 °F - 45.0 °F 72% 30.00 in 10.0 mi West 8.1 mph - 0.00 in Rain Light Rain
2:53 AM 51.1 °F - 48.0 °F 89% 29.97 in 10.0 mi Calm Calm - 0.00 in   Overcast
3:10 AM 51.8 °F - 48.2 °F 88% 30.00 in 10.0 mi Variable 3.5 mph - 0.01 in Rain , Thunderstorm Light Rain
3:25 AM 51.8 °F - 48.2 °F 88% 30.00 in 10.0 mi Calm Calm - 0.01 in   Overcast
3:53 AM 52.0 °F - 48.0 °F 86% 29.97 in 10.0 mi Calm Calm - 0.01 in Rain Light Rain
4:53 AM 53.1 °F - 48.9 °F 86% 29.94 in 10.0 mi South 6.9 mph - 0.00 in   Overcast
5:07 AM 51.8 °F - 48.2 °F 88% 29.97 in 10.0 mi South 5.8 mph - N/A   Overcast
5:31 AM 51.8 °F - 48.2 °F 88% 29.96 in 10.0 mi SSE 5.8 mph - N/A   Scattered Clouds
5:53 AM 50.0 °F - 48.0 °F 93% 29.92 in 10.0 mi SE 5.8 mph - N/A   Partly Cloudy
6:53 AM 50.0 °F - 48.9 °F 96% 29.91 in 9.0 mi SE 8.1 mph - 0.02 in   Overcast
7:53 AM 51.1 °F - 48.9 °F 92% 29.91 in 9.0 mi SE 9.2 mph - 0.00 in   Overcast
8:51 AM 51.8 °F - 48.2 °F 88% 29.91 in 9.0 mi SSE 8.1 mph - 0.01 in Rain , Thunderstorm Light Thunderstorms and Rain
8:53 AM 51.1 °F - 48.9 °F 92% 29.89 in 10.0 mi SSE 8.1 mph - 0.01 in Rain , Thunderstorm Light Thunderstorms and Rain
9:44 AM 51.8 °F - 48.2 °F 88% 29.90 in 8.0 mi SSE 6.9 mph - 0.00 in   Overcast
9:53 AM 52.0 °F - 48.9 °F 89% 29.88 in 9.0 mi SSE 12.7 mph - 0.00 in   Overcast
10:36 AM 51.8 °F - 48.2 °F 88% 29.91 in 8.0 mi SE 8.1 mph - N/A   Overcast
10:53 AM 51.1 °F - 50.0 °F 96% 29.91 in 4.0 mi SSE 5.8 mph - 0.00 in Rain Light Rain
11:03 AM 51.8 °F - 50.0 °F 94% 29.91 in 2.0 mi SE 5.8 mph - 0.00 in Rain Light Rain
11:17 AM 51.8 °F - 50.0 °F 94% 29.91 in 1.8 mi SE 4.6 mph - 0.00 in   Overcast
11:37 AM 51.8 °F - 50.0 °F 94% 29.92 in 1.2 mi SW 4.6 mph - 0.01 in   Overcast
11:40 AM 51.8 °F - 51.8 °F 100% 29.92 in 1.5 mi WSW 5.8 mph - 0.01 in   Overcast
11:51 AM 51.8 °F - 51.8 °F 100% 29.92 in 1.2 mi WSW 5.8 mph - 0.02 in Rain Light Rain
11:53 AM 52.0 °F - 51.1 °F 97% 29.91 in 1.2 mi WSW 5.8 mph - 0.02 in Rain Light Rain
12:03 PM 51.8 °F - 51.8 °F 100% 29.92 in 1.5 mi WSW 3.5 mph - 0.00 in   Overcast
12:11 PM 53.6 °F - 51.8 °F 94% 29.92 in 1.5 mi West 4.6 mph - 0.00 in   Overcast
12:17 PM 51.8 °F - 51.8 °F 100% 29.92 in 2.0 mi West 5.8 mph - 0.00 in   Overcast
12:39 PM 48.2 °F - 46.4 °F 93% 29.92 in 4.0 mi NNE 19.6 mph 31.1 mph 0.01 in Rain Light Rain
12:44 PM 48.2 °F - 46.4 °F 93% 29.92 in 10.0 mi NNE 18.4 mph 31.1 mph 0.01 in Rain Light Rain
12:53 PM 50.0 °F - 48.0 °F 93% 29.91 in 10.0 mi NE 19.6 mph 29.9 mph 0.01 in   Overcast
1:45 PM 53.6 °F - 48.2 °F 82% 29.93 in 10.0 mi NNE 18.4 mph - N/A   Overcast
1:53 PM 55.0 °F - 50.0 °F 83% 29.92 in 10.0 mi NE 17.3 mph 23.0 mph N/A   Overcast
2:00 PM 53.6 °F - 48.2 °F 82% 29.94 in 10.0 mi NNE 19.6 mph 23.0 mph N/A   Overcast
2:13 PM 46.4 °F 37.2 °F 44.6 °F 93% 29.97 in 10.0 mi North 29.9 mph 36.8 mph N/A   Overcast
2:21 PM 42.8 °F 32.1 °F 42.8 °F 100% 29.98 in 10.0 mi North 31.1 mph 39.1 mph N/A   Overcast
2:53 PM 41.0 °F 29.8 °F 37.9 °F 89% 30.02 in 10.0 mi North 29.9 mph 40.3 mph N/A   Overcast
3:53 PM 37.9 °F 25.7 °F 34.0 °F 86% 30.05 in 10.0 mi North 29.9 mph 40.3 mph N/A   Overcast
4:53 PM 36.0 °F 23.0 °F 30.9 °F 82% 30.08 in 10.0 mi North 29.9 mph 41.4 mph N/A   Overcast
5:27 PM 35.6 °F 22.5 °F 30.2 °F 81% 30.07 in 10.0 mi North 29.9 mph 42.6 mph N/A   Overcast
5:53 PM 35.1 °F 21.8 °F 28.9 °F 78% 30.13 in 10.0 mi North 29.9 mph 40.3 mph N/A   Overcast
6:24 PM 35.6 °F 23.0 °F 28.4 °F 75% 30.09 in 10.0 mi North 27.6 mph 44.9 mph N/A   Overcast
6:53 PM 34.0 °F 21.8 °F 28.0 °F 79% 30.18 in 10.0 mi NNE 23.0 mph 34.5 mph N/A   Overcast
7:05 PM 33.8 °F 24.8 °F 28.4 °F 81% 30.16 in 10.0 mi NE 12.7 mph 32.2 mph N/A   Overcast
7:53 PM 34.0 °F 20.8 °F 27.0 °F 75% 30.21 in 10.0 mi NNE 27.6 mph 33.4 mph N/A   Overcast
8:53 PM 32.0 °F 19.8 °F 27.0 °F 82% 30.25 in 10.0 mi NNE 20.7 mph 29.9 mph 0.00 in   Overcast
9:53 PM 33.1 °F 20.3 °F 26.1 °F 75% 30.31 in 9.0 mi North 24.2 mph 29.9 mph 0.00 in Snow Light Snow
10:26 PM 30.2 °F 16.5 °F 26.6 °F 86% 30.24 in 1.8 mi North 24.2 mph 33.4 mph 0.00 in Snow Light Snow
10:31 PM 30.2 °F 17.1 °F 28.4 °F 93% 30.22 in 0.8 mi NNE 21.9 mph 33.4 mph 0.00 in Snow Light Snow
10:39 PM 30.2 °F 15.4 °F 28.4 °F 93% 30.23 in 0.5 mi North 28.8 mph 39.1 mph 0.00 in Fog , Snow Snow
10:53 PM 30.0 °F 16.9 °F 28.9 °F 96% 30.25 in 0.5 mi NNE 21.9 mph 34.5 mph 0.01 in Fog , Snow Snow
11:10 PM 30.2 °F 17.8 °F 28.4 °F 93% 30.23 in 1.5 mi North 19.6 mph 28.8 mph 0.00 in Snow Light Snow
11:15 PM 30.2 °F 17.8 °F 28.4 °F 93% 30.24 in 3.0 mi North 19.6 mph 29.9 mph 0.00 in Snow Light Snow
11:29 PM 30.2 °F 18.9 °F 28.4 °F 93% 30.26 in 5.0 mi North 16.1 mph 26.5 mph 0.00 in Snow Light Snow
11:43 PM 30.2 °F 17.1 °F 28.4 °F 93% 30.27 in 4.0 mi North 21.9 mph 27.6 mph 0.00 in Snow Light Snow
11:53 PM 30.0 °F 17.2 °F 27.0 °F 88% 30.28 in 3.0 mi North 20.7 mph 31.1 mph 0.00 in Snow Light Snow
11:59 PM 30.2 °F 17.4 °F 26.6 °F 86% 30.25 in 1.8 mi North 20.7 mph 31.1 mph 0.00 in Snow Light Snow